Wind_Speed
25 24 23 22 21 21 19 19 19 19 21 18 22 19 23 22 19 15 18 20 19 20 22 24 25 26 28 30 35 39 46 53 51 48 42 38 35 26 19 16 10 7 8 11
27 24 24 24 21 21 19 18 18 17 20 19 20 18 20 20 19 18 17 18 19 20 22 24 24 25 29 29 34 38 46 52 49 47 45 36 32 22 20 15 8 8 8 10
29 24 23 23 20 20 20 19 18 20 20 19 19 17 20 20 19 18 18 17 19 20 22 23 24 25 29 29 34 38 45 51 48 47 46 35 31 26 22 19 13 11 11 11
31 26 25 22 19 20 19 20 21 20 21 20 22 17 18 18 17 17 18 17 18 20 22 23 24 25 29 30 33 38 45 49 46 45 47 35 30 27 19 12 12 14 14 11
31 29 27 23 20 20 19 21 23 23 23 21 20 21 19 18 17 17 19 17 17 19 22 22 24 24 28 28 33 37 43 48 47 48 48 39 30 25 17 9 7 10 12 13
33 33 31 26 23 20 22 22 23 23 22 19 20 21 19 18 17 16 20 18 18 19 20 22 24 23 25 27 29 35 41 47 47 48 44 36 29 26 22 14 11 12 14 16
35 36 33 30 26 23 23 23 25 23 20 19 19 20 22 20 18 17 20 18 17 19 20 22 23 23 23 26 27 33 38 45 46 49 38 36 29 27 24 18 9 7 16 16
38 36 34 30 29 28 27 26 25 26 21 17 17 22 22 23 20 18 18 20 17 19 21 21 21 21 21 24 24 30 35 42 44 46 40 35 30 25 22 14 11 8 15 20
39 41 36 34 34 33 29 28 27 27 26 21 16 19 24 25 23 19 19 20 15 17 18 18 19 19 19 22 23 27 32 39 42 43 46 35 34 25 26 19 12 13 23 27
45 45 40 38 37 37 35 32 31 28 28 25 17 18 24 25 23 21 20 16 13 17 15 17 18 18 18 20 21 24 28 34 40 39 44 39 35 20 21 20 16 27 31 25
46 46 45 43 42 39 38 37 35 33 29 28 25 18 24 23 18 18 16 13 13 16 15 16 15 15 16 17 19 21 25 29 37 39 39 41 32 23 17 21 33 36 30 27
40 44 47 44 43 44 43 40 38 34 31 28 27 19 25 24 16 17 14 15 12 14 15 16 15 15 14 15 17 18 21 25 31 36 38 41 27 25 17 18 33 35 33 29
42 50 48 49 51 52 47 43 38 37 37 27 26 20 27 29 19 15 15 15 12 13 15 15 15 15 14 14 14 16 16 21 25 32 37 39 28 27 20 23 32 29 28 25
54 52 54 54 49 44 44 38 36 38 41 26 19 21 25 33 17 15 16 17 17 12 15 15 14 14 15 13 13 13 13 15 19 25 31 36 34 22 25 22 28 24 17 14
59 62 59 55 53 52 46 44 44 44 40 35 20 21 23 36 20 15 16 15 18 14 13 14 12 13 15 14 11 10 11 11 14 18 24 30 33 23 15 21 20 19 17 14
62 60 63 64 59 56 54 52 52 49 48 36 23 16 25 34 25 17 16 16 16 17 16 14 13 14 13 15 12 8 8 9 9 12 16 22 27 29 21 11 14 17 22 16
68 62 63 66 62 61 56 53 53 55 51 38 29 19 29 33 26 20 18 17 16 18 18 16 15 14 13 14 13 9 7 7 6 8 10 14 18 22 25 21 11 9 14 10
65 65 63 62 61 62 53 49 47 49 49 36 24 21 30 31 29 24 19 19 17 18 19 18 17 15 14 13 14 12 9 8 5 4 6 7 10 13 17 18 19 16 9 3
54 61 68 68 67 63 59 53 50 48 39 29 29 22 29 31 29 26 22 20 19 19 20 18 17 17 15 14 14 14 12 10 8 4 2 3 4 5 8 10 12 13 12 9
46 49 57 66 70 65 58 58 54 51 47 33 31 29 34 35 29 26 24 21 19 19 19 21 19 18 18 15 14 16 15 12 11 9 6 3 2 1 2 3 5 5 7 8
48 49 53 55 58 56 59 58 57 53 46 31 35 35 37 36 31 26 25 21 21 20 18 21 20 18 19 19 17 17 17 15 13 12 10 8 5 4 2 3 4 4 5 5
51 50 53 56 56 48 51 55 55 52 40 35 31 37 35 33 32 30 27 22 22 18 17 19 20 18 18 18 18 18 19 17 16 15 13 11 9 8 7 6 5 5 6 6
56 51 49 50 44 48 47 40 41 41 41 35 32 30 33 36 34 32 29 26 23 20 18 18 21 18 16 16 17 18 18 19 18 17 16 14 13 12 11 10 9 9 8 8
56 52 52 50 44 46 51 51 47 47 46 35 27 29 34 40 38 37 29 28 25 22 22 20 20 20 18 15 16 17 17 20 20 19 19 18 17 16 14 13 13 13 12 13
51 54 53 52 48 49 46 45 45 43 38 36 34 34 35 42 43 41 36 31 30 25 26 25 21 21 20 18 19 16 16 15 15 17 17 19 20 20 19 17 17 17 17 17
52 56 58 55 53 52 48 47 45 41 35 38 38 36 40 44 47 46 40 34 32 28 28 28 23 26 23 21 20 17 17 19 17 17 18 22 23 21 17 15 16 16 17 18
Wind_Direction
261 272 283 279 275 273 273 277 281 285 286 287 291 298 298 304 308 298 295 301 299 297 296 301 306 313 322 330 334 339 340 341 340 342 333 328 335 331 326 321 301 278 259 234
259 270 280 278 272 272 275 277 278 285 284 288 294 299 304 304 309 310 304 300 301 300 301 304 305 312 324 335 335 342 344 343 343 341 340 333 337 335 331 316 302 270 275 250
255 266 278 274 269 272 273 275 279 284 286 297 296 301 304 307 312 310 307 305 307 306 302 302 304 311 324 335 337 343 347 347 345 344 341 336 332 327 329 316 278 255 259 248
253 263 270 273 270 270 272 274 278 285 290 295 294 304 307 309 309 309 305 308 311 308 302 304 304 309 322 336 339 344 349 350 349 343 341 339 335 333 331 316 294 268 260 240
251 257 262 270 272 274 276 279 282 290 291 295 294 301 304 309 311 309 305 308 311 309 303 306 309 308 320 337 340 346 352 352 352 348 346 345 337 340 334 321 310 263 244 220
249 254 258 268 271 280 279 282 284 291 290 294 297 299 302 306 308 311 308 310 310 305 308 308 309 313 319 337 344 348 353 353 355 353 350 347 340 345 338 323 293 246 213 197
252 255 257 262 267 276 280 281 286 293 290 293 295 298 298 302 303 306 304 311 310 301 304 309 309 315 322 338 347 348 355 354 358 357 356 351 343 346 353 346 318 235 191 180
248 250 254 257 264 270 276 280 287 291 297 295 297 301 297 297 299 302 301 308 313 306 303 303 308 315 323 336 349 349 357 356 1 1 0 355 349 351 7 19 68 129 158 154
248 250 252 255 259 264 270 275 280 286 291 295 297 293 295 290 294 299 298 304 313 309 303 305 305 314 324 333 349 352 360 359 3 3 5 358 356 358 23 41 62 101 127 136
245 247 247 251 254 257 264 269 273 278 284 290 297 294 292 288 292 295 301 301 313 313 304 301 300 310 324 332 348 356 2 2 6 7 7 6 4 360 36 34 101 122 124 129
243 244 246 247 250 255 258 262 266 268 277 289 297 295 282 289 293 296 298 295 311 309 307 301 295 304 321 332 346 355 3 3 7 14 9 11 7 14 41 71 113 113 111 100
240 242 244 245 247 250 253 255 258 265 273 281 291 299 287 289 298 292 292 289 304 306 303 302 295 296 312 328 343 351 5 6 9 15 18 16 14 21 44 81 115 114 101 106
231 235 237 237 240 243 248 253 260 267 268 274 281 296 288 288 295 293 288 285 294 294 294 293 292 287 301 318 336 347 5 7 14 13 24 23 28 24 51 101 116 112 109 114
228 229 237 243 248 249 253 255 255 256 259 267 275 283 283 280 298 290 281 278 288 290 286 290 286 284 286 303 325 342 353 15 15 19 21 32 36 41 57 96 96 101 108 119
238 232 235 237 241 245 246 248 248 254 262 259 269 274 269 274 285 283 271 276 286 291 280 287 285 281 281 289 308 331 342 13 15 26 26 31 40 53 60 78 107 108 126 130
235 237 236 237 240 243 245 246 249 250 255 262 265 258 263 266 277 278 276 278 280 282 281 283 287 274 277 284 292 310 333 350 26 23 34 32 40 49 66 82 88 126 144 147
232 234 232 235 238 242 245 246 248 251 255 261 259 261 248 263 271 275 270 277 281 276 276 273 275 275 273 276 281 292 306 328 358 38 37 43 40 46 59 71 91 137 154 158
238 237 235 238 239 241 245 246 248 250 253 258 257 258 251 255 264 270 275 275 273 274 274 272 269 268 269 272 273 281 285 296 317 9 45 51 55 50 51 65 69 71 89 129
234 237 238 240 244 246 243 245 243 249 256 251 248 252 254 251 253 262 265 271 272 274 273 271 267 264 263 266 268 272 275 277 282 289 347 43 63 69 70 63 77 90 87 98
225 230 235 238 240 241 242 247 247 247 249 245 249 243 244 246 251 255 260 265 268 272 274 272 265 257 256 261 262 264 269 270 271 274 272 289 336 39 119 137 119 94 97 107
229 228 229 232 238 240 241 243 244 248 251 252 252 246 242 242 244 247 255 258 265 266 269 272 268 266 254 254 260 261 262 265 267 269 266 268 276 292 290 222 212 198 182 180
230 230 233 234 237 240 241 241 243 248 254 257 258 244 244 240 238 242 249 253 259 262 265 272 264 264 259 252 253 257 251 256 260 264 267 264 265 271 270 277 272 258 246 243
233 233 234 235 236 242 247 247 253 254 255 253 249 240 241 245 241 244 247 245 247 252 259 265 263 262 270 256 250 257 259 249 256 260 266 265 268 269 262 257 265 270 268 264
234 232 229 233 233 238 242 248 244 251 260 256 248 246 234 240 243 244 242 244 244 244 251 257 265 260 259 261 261 256 257 251 247 251 257 267 266 260 257 258 262 264 263 265
236 235 231 230 233 236 238 241 247 251 250 255 252 246 240 237 241 242 239 240 246 244 248 252 259 258 251 251 262 274 262 261 269 258 254 262 265 260 251 245 254 262 267 266
236 235 234 232 232 237 237 240 245 248 244 245 244 246 241 236 238 239 240 240 241 241 245 248 251 255 247 253 252 256 263 269 258 256 259 274 271 262 258 256 259 266 270 269
Height
5777 5778 5777 5776 5774 5774 5772 5772 5772 5770 5771 5770 5765 5764 5760 5757 5756 5754 5751 5749 5747 5745 5742 5739 5735 5731 5727 5722 5714 5705 5694 5682 5669 5657 5646 5636 5626 5619 5613 5608 5605 5604 5605 5607
5772 5773 5772 5771 5770 5770 5768 5768 5768 5767 5766 5766 5762 5760 5757 5755 5752 5750 5748 5745 5743 5741 5738 5735 5731 5728 5723 5718 5710 5701 5690 5677 5664 5652 5641 5632 5624 5617 5612 5609 5605 5604 5604 5605
5766 5768 5767 5766 5765 5765 5765 5763 5764 5763 5763 5761 5759 5757 5754 5751 5749 5747 5744 5742 5740 5738 5734 5732 5728 5724 5720 5715 5707 5698 5687 5674 5660 5649 5637 5627 5621 5616 5611 5607 5604 5603 5603 5603
5760 5762 5763 5762 5761 5760 5761 5759 5759 5758 5758 5757 5754 5754 5751 5748 5746 5744 5741 5739 5737 5734 5731 5729 5725 5721 5717 5712 5704 5694 5683 5671 5659 5646 5635 5625 5619 5613 5607 5602 5600 5599 5600 5601
5756 5756 5757 5757 5756 5756 5756 5754 5754 5754 5753 5752 5751 5748 5747 5745 5743 5741 5738 5735 5733 5731 5728 5725 5722 5718 5714 5710 5702 5692 5681 5669 5657 5644 5633 5623 5616 5611 5604 5599 5596 5594 5596 5599
5748 5749 5752 5753 5751 5751 5751 5750 5749 5749 5748 5749 5746 5744 5743 5741 5740 5739 5735 5732 5730 5728 5725 5722 5718 5715 5711 5707 5700 5690 5680 5668 5656 5644 5632 5622 5613 5609 5603 5596 5591 5589 5591 5596
5742 5743 5746 5746 5747 5746 5746 5745 5745 5745 5744 5744 5742 5740 5738 5737 5737 5735 5731 5729 5726 5724 5721 5719 5715 5712 5709 5705 5699 5690 5680 5669 5657 5644 5633 5623 5614 5608 5601 5594 5588 5585 5589 5595
5733 5736 5739 5741 5741 5741 5741 5741 5740 5738 5739 5740 5738 5736 5734 5733 5732 5731 5728 5725 5723 5721 5718 5716 5713 5710 5706 5703 5698 5689 5680 5669 5659 5646 5635 5626 5615 5607 5601 5594 5588 5587 5590 5596
5726 5727 5731 5732 5734 5735 5736 5736 5736 5734 5735 5735 5736 5733 5729 5728 5728 5726 5723 5721 5719 5717 5715 5712 5710 5707 5704 5701 5697 5689 5681 5671 5661 5649 5638 5628 5619 5609 5602 5597 5593 5592 5596 5603
5715 5718 5721 5724 5725 5727 5728 5730 5731 5730 5729 5729 5731 5729 5725 5723 5724 5722 5720 5718 5716 5713 5712 5709 5707 5704 5702 5699 5696 5690 5683 5674 5664 5653 5642 5632 5623 5614 5606 5602 5598 5599 5606 5613
5705 5709 5713 5715 5717 5720 5721 5722 5724 5724 5725 5723 5724 5726 5721 5720 5720 5718 5716 5714 5713 5711 5710 5707 5705 5702 5700 5698 5695 5691 5685 5677 5668 5658 5648 5638 5629 5622 5615 5611 5609 5612 5617 5621
5695 5696 5699 5705 5708 5709 5711 5714 5716 5717 5720 5720 5718 5722 5716 5715 5717 5714 5713 5710 5709 5708 5707 5705 5702 5700 5698 5697 5694 5691 5687 5681 5673 5664 5655 5645 5637 5630 5624 5620 5620 5624 5628 5633
5683 5682 5687 5690 5695 5696 5702 5706 5710 5711 5710 5714 5714 5716 5710 5707 5712 5710 5708 5706 5706 5705 5704 5702 5700 5698 5697 5695 5694 5691 5688 5683 5677 5670 5661 5653 5645 5639 5635 5632 5631 5635 5639 5644
5667 5670 5674 5680 5687 5694 5695 5700 5701 5699 5699 5707 5710 5710 5706 5700 5707 5707 5704 5702 5701 5702 5701 5699 5697 5696 5695 5694 5693 5691 5689 5685 5681 5676 5668 5662 5654 5651 5645 5645 5642 5644 5649 5654
5651 5659 5662 5667 5673 5678 5684 5688 5689 5689 5693 5695 5704 5704 5703 5696 5702 5702 5700 5698 5698 5699 5697 5696 5694 5693 5693 5692 5691 5691 5689 5687 5684 5680 5675 5670 5664 5659 5658 5657 5656 5654 5657 5659
5635 5645 5651 5655 5660 5665 5669 5675 5677 5680 5680 5688 5694 5699 5696 5691 5696 5697 5696 5695 5695 5696 5696 5694 5692 5690 5689 5690 5690 5689 5688 5687 5686 5683 5680 5676 5672 5667 5664 5665 5663 5664 5665 5667
5623 5630 5637 5641 5647 5650 5655 5661 5667 5671 5673 5682 5686 5694 5688 5687 5691 5691 5691 5691 5690 5690 5691 5690 5689 5688 5687 5687 5688 5688 5687 5687 5686 5685 5683 5681 5678 5675 5672 5669 5670 5671 5670 5670
5613 5620 5624 5630 5635 5635 5644 5652 5657 5660 5664 5673 5679 5682 5681 5682 5685 5685 5686 5687 5686 5685 5685 5685 5685 5685 5685 5684 5685 5686 5686 5686 5686 5685 5685 5684 5682 5680 5678 5676 5674 5674 5673 5673
5600 5607 5611 5615 5620 5627 5630 5637 5646 5651 5660 5666 5669 5673 5672 5674 5678 5679 5680 5681 5681 5680 5681 5680 5680 5681 5681 5681 5681 5683 5684 5685 5685 5685 5685 5684 5684 5683 5683 5681 5680 5680 5679 5678
5586 5592 5597 5601 5604 5608 5619 5628 5636 5643 5643 5658 5661 5663 5662 5666 5670 5672 5673 5674 5675 5675 5676 5676 5676 5676 5677 5677 5677 5679 5680 5682 5683 5684 5684 5684 5684 5684 5684 5684 5684 5683 5682 5683
5574 5579 5582 5588 5591 5599 5606 5616 5622 5627 5638 5651 5649 5653 5654 5656 5661 5664 5667 5667 5669 5670 5670 5671 5672 5672 5673 5673 5673 5674 5677 5678 5680 5681 5682 5682 5682 5682 5683 5684 5684 5684 5684 5684
5564 5567 5574 5579 5584 5590 5598 5602 5609 5620 5630 5634 5639 5642 5643 5647 5650 5655 5659 5660 5662 5664 5664 5666 5667 5667 5667 5668 5669 5669 5671 5673 5675 5677 5678 5679 5680 5681 5681 5681 5681 5682 5682 5683
5550 5559 5563 5569 5580 5584 5588 5596 5604 5611 5618 5623 5629 5631 5634 5638 5642 5646 5650 5653 5655 5657 5659 5660 5662 5663 5664 5663 5664 5665 5666 5668 5670 5672 5674 5675 5676 5677 5678 5678 5679 5679 5679 5679
5539 5545 5550 5557 5571 5574 5576 5581 5590 5597 5603 5611 5617 5622 5625 5628 5632 5636 5640 5645 5647 5649 5652 5653 5655 5657 5659 5659 5659 5660 5661 5663 5665 5667 5668 5669 5670 5671 5673 5674 5675 5675 5676 5676
5527 5532 5543 5550 5557 5564 5567 5573 5579 5587 5594 5600 5606 5613 5616 5619 5622 5627 5631 5636 5640 5641 5645 5647 5648 5651 5653 5654 5654 5656 5657 5658 5660 5662 5663 5664 5665 5665 5666 5667 5668 5669 5669 5670
5515 5523 5528 5543 5546 5553 5558 5564 5569 5577 5584 5591 5596 5600 5604 5608 5611 5617 5622 5627 5631 5632 5637 5639 5640 5645 5645 5648 5649 5650 5652 5654 5654 5656 5659 5660 5659 5660 5660 5661 5662 5662 5663 5663